TimeEDT,TemperatureF,Dew PointF,Humidity,Sea Level PressureIn,VisibilityMPH,Wind Direction,Wind SpeedMPH,Gust SpeedMPH,PrecipitationIn,Events,Conditions,WindDirDegrees,DateUTC
12:54 AM,28.9,19.0,67,30.11,10.0,SSE,4.6,-,N/A,,Clear,150,2013-03-31 04:54:00
1:54 AM,28.9,19.0,67,30.11,10.0,Calm,Calm,-,N/A,,Clear,0,2013-03-31 05:54:00
2:54 AM,27.0,19.0,72,30.10,10.0,Calm,Calm,-,N/A,,Clear,0,2013-03-31 06:54:00
3:54 AM,26.1,19.0,75,30.10,10.0,Calm,Calm,-,N/A,,Clear,0,2013-03-31 07:54:00
4:54 AM,26.1,19.0,75,30.09,10.0,Calm,Calm,-,N/A,,Clear,0,2013-03-31 08:54:00
5:54 AM,25.0,19.0,78,30.08,10.0,Calm,Calm,-,N/A,,Clear,0,2013-03-31 09:54:00
6:54 AM,23.0,19.0,85,30.07,10.0,Calm,Calm,-,N/A,,Clear,0,2013-03-31 10:54:00
7:54 AM,30.0,21.9,72,30.06,10.0,Calm,Calm,-,N/A,,Clear,0,2013-03-31 11:54:00
8:54 AM,37.0,24.1,59,30.05,10.0,North,4.6,-,N/A,,Clear,360,2013-03-31 12:54:00
9:54 AM,50.0,19.0,29,30.02,10.0,South,6.9,-,N/A,,Clear,180,2013-03-31 13:54:00
10:54 AM,52.0,19.9,28,30.01,10.0,South,10.4,-,N/A,,Clear,180,2013-03-31 14:54:00
11:54 AM,53.1,19.0,26,29.99,10.0,South,16.1,26.5,N/A,,Clear,180,2013-03-31 15:54:00
12:54 PM,53.1,19.0,26,29.96,10.0,South,11.5,20.7,N/A,,Clear,180,2013-03-31 16:54:00
1:54 PM,54.0,19.0,25,29.93,10.0,South,18.4,26.5,N/A,,Clear,170,2013-03-31 17:54:00
2:54 PM,55.0,19.9,25,29.89,10.0,South,19.6,34.5,N/A,,Scattered Clouds,180,2013-03-31 18:54:00
3:54 PM,55.0,21.9,28,29.87,10.0,SSE,15.0,28.8,N/A,,Mostly Cloudy,160,2013-03-31 19:54:00
4:54 PM,52.0,23.0,32,29.86,10.0,SSE,11.5,24.2,N/A,,Overcast,160,2013-03-31 20:54:00
5:54 PM,50.0,27.0,41,29.86,10.0,SSE,17.3,26.5,N/A,,Overcast,160,2013-03-31 21:54:00
6:54 PM,45.0,35.1,68,29.87,7.0,SSE,16.1,26.5,0.00,Rain,Light Rain,160,2013-03-31 22:54:00
8:54 PM,42.1,35.1,76,29.80,10.0,SSE,16.1,25.3,0.02,,Overcast,150,2013-04-01 00:54:00
9:54 PM,44.1,34.0,68,29.76,10.0,SE,9.2,20.7,N/A,,Overcast,130,2013-04-01 01:54:00
10:40 PM,42.8,35.6,76,29.71,4.0,SE,17.3,32.2,0.05,Rain,Rain,140,2013-04-01 02:40:00
10:54 PM,41.0,35.1,79,29.73,3.0,SE,9.2,23.0,0.09,Rain,Light Rain,140,2013-04-01 02:54:00
11:07 PM,42.8,35.6,76,29.71,8.0,SE,10.4,17.3,0.00,Rain,Light Rain,130,2013-04-01 03:07:00
11:54 PM,39.9,37.0,89,29.70,6.0,Calm,Calm,-,0.04,Rain,Light Rain,0,2013-04-01 03:54:00